Location: Izdebno
(52.6670°N, 16.2170°E)
Time: 03:27:04
(UTC+02:00)

Transit 4A - Pass Details

Date: 24 February 2024
Orbit: 871 x 972 km, 66.8° (Epoch: 22 April)

Event Time Altitude Azimuth Distance (km) Brightness Sun altitude
Rises 11:56:29 0° 309° (NW) 3,493 10.5 27.7°
Reaches altitude 10° 12:00:44 10° 280° (W) 2,533 10.1 27.8°
Maximum altitude 12:02:48 12° 259° (W) 2,385 10.3 27.8°
Drops below altitude 10° 12:04:52 10° 238° (WSW) 2,520 10.7 27.8°
Sets 12:09:04 0° 209° (SSW) 3,449 11.8 27.8°
